Temperature
15 15 15 15 15 15 14 14 14 14 15 15 15 15 15 15 15 15 15 15 16 15 15 15 15 15 15 15 15 15 15 15 15 15 15 15 15 15
14 14 14 14 14 14 14 14 14 14 14 14 14 14 14 14 15 15 15 15 15 15 15 15 15 15 15 15 15 14 14 14 14 14 14 14 14 14
14 14 14 14 14 14 14 14 14 14 14 14 14 14 14 14 14 14 14 15 15 15 15 15 15 15 14 14 14 14 14 14 14 14 14 14 14 14
14 14 14 14 14 14 14 14 13 13 13 13 13 13 13 14 14 14 14 14 14 14 14 15 14 14 14 14 14 14 14 14 14 14 14 14 14 14
14 14 14 14 14 14 14 14 14 14 14 13 13 13 13 14 14 14 14 14 14 14 14 14 14 14 14 14 14 14 13 13 13 13 13 13 13 13
13 13 14 13 13 13 13 13 13 14 14 13 13 13 13 13 13 13 13 13 13 13 13 13 13 13 13 13 13 13 13 13 13 13 13 13 13 12
13 13 13 13 14 13 13 13 13 13 13 13 13 13 13 13 13 13 13 13 13 13 13 13 13 13 13 13 13 13 13 12 12 12 12 12 12 12
13 13 13 13 13 13 13 13 13 13 13 13 13 13 13 13 13 13 13 13 12 12 12 12 12 12 12 12 12 12 12 12 12 12 12 12 12 11
13 13 13 13 13 13 13 13 13 13 13 13 13 13 12 13 13 12 12 12 12 12 12 11 11 11 11 11 11 11 11 11 11 11 11 11 11 11
13 13 13 13 13 13 13 13 13 13 13 13 13 12 12 12 12 12 12 12 12 12 11 11 11 10 10 10 10 11 11 11 11 11 11 11 11 11
13 13 13 13 13 13 13 13 13 13 13 13 13 13 13 13 12 12 12 12 11 11 11 11 10 10 10 10 10 10 10 10 10 10 10 10 10 10
12 12 13 13 13 13 12 12 12 12 12 12 12 12 12 12 12 12 12 12 11 11 11 11 10 10 10 9 9 9 9 9 9 9 9 9 9 9
12 12 12 12 13 13 12 12 12 12 12 12 11 11 11 11 11 11 11 11 11 11 11 10 10 10 10 9 9 8 8 8 8 9 9 9 9 9
12 12 12 12 12 12 12 12 12 12 11 11 11 11 11 11 11 11 11 11 11 11 10 10 10 10 10 9 8 8 8 8 8 8 8 8 8 8
11 11 12 12 12 12 12 12 11 11 11 11 11 11 11 10 10 10 10 10 10 10 10 10 9 9 9 9 8 8 8 7 7 7 7 7 7 7
11 11 11 11 11 11 11 11 11 11 11 11 10 10 10 10 10 9 9 9 9 9 9 9 9 9 9 8 8 8 7 7 7 7 6 6 6 6
10 10 10 10 10 10 11 11 10 10 10 10 10 10 9 9 9 9 9 9 9 9 8 8 8 8 8 8 7 7 7 7 6 6 6 6 6 6
10 10 10 10 10 10 10 10 10 10 10 9 9 9 9 9 9 9 9 8 8 8 8 8 7 7 7 7 7 7 7 6 6 6 6 6 5 5
10 10 10 10 10 10 9 9 9 9 9 9 9 9 9 8 8 8 8 8 8 8 7 7 7 8 8 7 6 7 6 6 6 5 5 5 5 5
10 9 9 9 9 9 9 9 9 9 9 9 8 8 8 8 8 8 8 8 7 7 7 7 7 7 7 7 6 6 6 6 5 5 5 5 5 5
9 9 9 9 9 9 9 9 9 9 8 8 8 8 8 8 8 8 8 7 7 7 7 7 7 7 7 6 6 5 6 6 6 6 5 5 5 5
10 9 10 9 9 9 9 9 8 8 8 8 8 8 7 7 7 7 7 7 7 7 7 7 7 6 6 6 6 6 5 5 6 6 6 6 6 5
10 10 10 10 10 9 9 9 8 8 8 8 7 7 7 7 7 7 7 7 7 7 6 6 6 6 6 6 6 6 5 5 5 5 5 6 6 6
Wind_Speed
7 7 6 5 5 5 4 4 4 4 4 3 2 1 2 2 2 5 7 8 10 11 11 10 10 10 10 10 9 9 8 7 7 6 6 6 6 6
5 6 6 5 5 5 5 4 4 4 3 2 2 1 1 2 2 4 3 5 8 9 9 10 10 10 10 10 10 10 10 10 9 9 8 8 7 8
4 5 5 4 4 4 4 4 4 4 3 1 1 1 2 2 2 3 4 5 6 8 8 8 8 9 9 9 10 10 11 11 11 10 10 9 9 9
4 4 4 4 4 4 4 5 4 4 4 3 2 2 2 1 2 2 2 3 3 6 4 4 5 5 6 7 8 9 10 10 11 11 10 10 10 10
3 4 4 4 4 4 4 4 4 4 3 3 2 2 1 1 2 2 2 2 2 5 4 4 3 1 1 2 3 5 7 8 9 9 9 9 9 9
2 2 2 3 3 3 3 4 4 4 3 3 3 2 2 1 1 2 3 3 3 4 5 5 6 6 6 6 5 4 4 4 5 6 7 8 8 8
3 3 3 4 6 3 2 3 4 4 4 3 3 3 2 2 1 1 3 3 4 3 3 4 4 5 6 7 7 7 5 4 3 3 3 4 4 5
4 4 5 5 7 7 6 5 3 3 4 3 3 3 3 3 2 2 3 3 3 3 3 4 5 6 8 10 12 12 10 9 7 6 4 4 3 3
4 5 4 5 5 7 8 8 8 7 3 2 4 4 3 3 2 3 3 3 3 2 2 4 5 6 8 12 15 15 14 13 11 10 9 8 8 7
5 5 5 5 5 5 7 7 8 8 6 5 6 6 5 4 3 3 5 5 5 3 2 3 4 4 6 10 15 16 16 16 15 13 12 10 10 10
7 7 5 6 6 3 6 8 9 9 13 15 14 12 11 10 5 3 3 4 4 4 3 2 3 4 4 5 10 15 17 18 17 16 15 13 9 6
6 7 10 8 6 5 5 7 8 8 7 8 8 8 8 8 6 4 2 2 3 3 3 1 2 2 3 4 5 6 10 14 16 18 18 18 15 7
6 6 7 8 8 8 5 6 7 6 7 7 6 6 6 6 7 8 7 5 4 4 2 1 0 0 2 2 3 6 7 7 8 10 15 17 18 13
6 6 7 10 10 9 7 8 5 3 6 5 6 6 6 6 6 7 9 10 9 7 4 3 1 1 2 3 3 3 6 7 7 7 8 8 11 12
8 10 9 8 8 10 10 6 3 4 5 6 6 6 5 5 5 6 7 9 10 10 8 7 4 4 4 4 3 2 3 5 7 6 7 7 8 8
7 9 9 10 8 8 6 6 6 6 5 6 5 5 5 4 4 4 4 4 6 7 10 11 10 8 7 7 5 4 4 3 4 5 5 6 8 9
4 4 5 5 6 6 6 6 5 5 6 5 5 5 4 4 4 4 3 4 5 6 6 7 10 12 11 7 5 5 4 4 4 4 4 4 6 7
2 5 5 6 6 5 5 5 6 5 5 4 4 4 4 4 4 4 4 4 5 5 5 4 3 4 5 7 9 4 4 4 3 3 3 3 4 5
4 5 5 5 5 5 5 5 5 5 4 4 4 4 4 4 4 4 4 4 4 4 3 2 1 1 1 3 4 7 4 3 2 2 2 2 3 4
4 4 4 4 4 4 4 4 4 4 3 4 3 3 3 3 3 3 3 3 3 3 3 3 3 3 3 2 3 3 6 4 2 2 2 1 1 2
3 3 3 3 3 3 3 3 3 3 3 3 3 3 3 3 3 3 4 3 2 3 3 3 3 2 1 2 3 3 4 5 5 4 4 3 2 2
2 2 2 2 2 2 2 2 2 2 2 2 3 2 2 2 3 3 3 3 2 3 3 4 3 1 1 1 1 2 1 2 3 3 3 3 4 4
2 2 2 2 2 2 2 2 2 2 2 2 2 2 2 2 2 2 2 2 3 3 3 3 3 2 1 1 1 1 1 1 2 2 1 3 3 6
Wind_Direction
209 209 210 204 202 211 213 212 223 232 223 217 205 180 223 233 189 233 237 195 209 215 219 222 225 230 235 238 241 248 252 253 254 259 263 267 276 282
204 209 210 206 200 204 208 212 218 231 232 189 196 182 226 215 194 242 237 163 206 211 218 222 226 231 237 240 244 247 248 248 248 252 256 260 267 272
192 195 199 193 195 199 202 209 214 217 228 218 212 202 217 221 190 215 207 213 194 195 212 219 226 233 239 243 247 249 250 251 252 254 257 260 264 269
177 180 184 175 187 188 190 197 201 202 214 211 190 198 211 203 215 195 198 208 187 150 186 208 222 237 246 254 259 259 258 257 256 257 260 264 267 270
165 170 177 176 181 181 184 182 186 187 196 195 179 160 162 166 174 152 159 148 135 130 136 132 110 97 353 311 299 285 273 266 263 264 266 268 272 276
124 133 147 162 164 172 177 175 174 169 176 176 162 149 129 144 169 150 133 114 108 102 90 91 96 91 72 50 29 1 327 296 279 274 274 274 276 279
105 104 93 81 68 82 132 158 165 163 159 157 149 140 136 142 136 136 122 117 93 73 87 80 84 71 62 54 41 29 22 7 343 321 304 297 297 300
100 98 107 109 104 96 80 70 64 139 149 148 142 136 123 117 106 121 134 141 105 61 78 70 67 63 53 46 44 48 46 42 36 32 33 32 24 14
88 97 96 100 123 117 113 115 86 63 43 111 118 107 106 107 118 115 103 89 88 80 89 80 71 66 61 54 53 52 51 49 48 50 53 56 57 53
68 79 96 101 89 105 113 103 90 74 60 80 87 78 71 77 88 96 103 106 104 86 72 79 76 69 69 66 60 58 55 53 52 51 53 57 61 63
62 59 67 90 60 36 114 110 102 88 71 71 73 80 67 45 24 111 129 134 113 93 67 83 108 93 82 84 73 68 65 60 55 52 48 43 39 57
73 70 56 66 65 11 114 116 111 108 110 107 102 110 91 72 30 58 60 99 117 100 60 83 140 138 101 71 61 60 67 69 64 58 51 42 28 39
74 71 66 66 65 40 45 90 95 106 107 102 94 85 76 68 60 55 48 42 70 80 54 10 167 165 120 116 67 46 44 47 53 62 60 51 43 39
71 72 74 72 71 59 68 79 78 93 107 104 95 84 78 73 69 68 67 65 63 66 45 16 43 64 120 118 92 55 47 42 40 42 49 59 57 56
74 71 73 79 95 84 77 74 97 98 99 97 91 83 79 80 84 82 81 78 72 61 49 47 59 62 68 86 89 72 58 43 35 37 40 41 40 36
93 96 92 76 82 88 92 77 73 73 85 93 95 96 96 91 84 87 94 98 87 72 59 57 60 66 73 71 74 65 54 50 36 39 42 47 45 42
86 96 90 90 84 81 79 76 80 88 86 90 96 101 101 94 84 77 79 94 97 93 85 74 74 76 65 54 74 65 63 60 46 37 41 50 50 44
83 93 89 86 85 87 88 87 82 78 80 85 89 93 95 95 92 86 89 95 99 97 94 95 111 125 116 74 37 44 56 53 44 35 26 37 54 51
95 93 91 88 87 87 87 87 84 81 81 87 90 94 99 99 97 96 96 97 97 97 89 70 4 280 148 107 74 31 25 44 34 41 31 21 34 43
84 90 91 90 89 91 92 95 97 96 93 94 95 95 98 103 102 101 96 97 105 108 100 72 40 25 34 72 99 72 34 22 9 8 358 337 11 182
95 95 95 99 99 97 96 100 104 105 104 106 100 101 104 108 109 110 104 99 109 115 104 82 60 330 70 120 120 106 80 58 25 3 348 324 310 309
118 124 121 120 120 116 120 132 136 131 136 134 122 122 118 120 124 122 122 136 127 110 104 103 120 140 116 90 98 104 99 128 139 121 45 10 339 334
163 161 164 173 173 175 179 176 177 162 160 160 152 150 148 144 139 136 137 139 135 136 139 132 128 117 101 98 103 83 54 328 318 284 197 167 242 271
Height
1521 1523 1525 1527 1529 1531 1533 1535 1537 1537 1538 1539 1540 1540 1541 1543 1543 1545 1547 1548 1549 1550 1551 1553 1554 1554 1555 1555 1555 1555 1555 1555 1554 1554 1554 1553 1553 1552
1518 1520 1522 1524 1525 1527 1529 1531 1532 1534 1535 1536 1537 1537 1538 1539 1540 1542 1543 1544 1545 1547 1548 1550 1550 1551 1551 1552 1552 1552 1552 1552 1552 1551 1551 1551 1550 1549
1516 1518 1520 1521 1522 1524 1526 1527 1529 1530 1532 1533 1534 1535 1536 1537 1538 1539 1540 1541 1542 1543 1545 1546 1547 1548 1548 1548 1548 1548 1548 1548 1548 1548 1548 1547 1547 1546
1515 1517 1518 1519 1521 1522 1524 1525 1526 1527 1529 1530 1531 1532 1533 1534 1535 1536 1537 1539 1540 1540 1542 1543 1544 1544 1545 1545 1544 1544 1544 1544 1544 1544 1543 1543 1543 1542
1515 1516 1517 1519 1520 1521 1522 1524 1525 1526 1527 1529 1530 1530 1531 1532 1533 1534 1535 1536 1537 1538 1539 1540 1540 1541 1541 1541 1541 1540 1540 1540 1539 1539 1539 1539 1538 1538
1515 1516 1517 1519 1520 1521 1522 1523 1524 1525 1526 1528 1529 1530 1530 1531 1532 1533 1534 1535 1536 1536 1537 1537 1538 1538 1538 1538 1537 1537 1536 1536 1535 1535 1535 1534 1534 1533
1515 1516 1517 1518 1519 1520 1522 1523 1524 1524 1526 1527 1528 1529 1530 1530 1531 1532 1532 1533 1534 1535 1535 1535 1536 1536 1536 1535 1534 1534 1533 1532 1532 1531 1531 1530 1530 1529
1516 1517 1518 1519 1520 1521 1522 1522 1524 1525 1526 1527 1528 1529 1530 1530 1530 1531 1532 1533 1534 1534 1534 1535 1535 1534 1534 1533 1532 1532 1531 1530 1529 1528 1528 1527 1526 1525
1516 1518 1519 1519 1521 1522 1522 1523 1524 1525 1526 1528 1528 1529 1529 1529 1530 1531 1531 1532 1532 1533 1534 1534 1534 1534 1534 1532 1532 1531 1530 1529 1528 1527 1526 1525 1524 1523
1517 1519 1520 1521 1522 1523 1524 1525 1525 1526 1527 1528 1529 1529 1529 1530 1530 1531 1531 1531 1532 1533 1534 1534 1534 1534 1534 1533 1531 1530 1529 1528 1527 1526 1525 1523 1522 1521
1518 1519 1521 1522 1523 1524 1525 1526 1526 1527 1528 1528 1529 1529 1529 1530 1530 1531 1532 1533 1533 1534 1534 1534 1534 1534 1534 1533 1532 1530 1529 1527 1526 1525 1524 1522 1521 1520
1519 1521 1522 1523 1524 1525 1527 1527 1528 1529 1529 1530 1530 1531 1531 1531 1531 1532 1533 1533 1534 1534 1534 1534 1535 1535 1534 1534 1533 1531 1529 1528 1526 1525 1524 1522 1521 1521
1521 1522 1523 1524 1525 1526 1527 1528 1529 1530 1531 1531 1532 1532 1532 1532 1532 1532 1532 1533 1533 1533 1534 1534 1534 1534 1534 1534 1533 1532 1530 1529 1527 1525 1524 1523 1521 1520
1523 1524 1525 1526 1527 1528 1528 1529 1530 1531 1532 1533 1533 1533 1533 1533 1533 1533 1533 1533 1533 1534 1534 1534 1534 1534 1534 1534 1533 1532 1531 1529 1528 1527 1525 1523 1522 1520
1525 1526 1526 1527 1528 1529 1530 1530 1531 1532 1533 1533 1534 1534 1534 1534 1534 1534 1534 1534 1534 1534 1534 1534 1534 1534 1534 1534 1533 1532 1531 1530 1528 1527 1526 1525 1523 1521
1528 1528 1529 1529 1530 1530 1531 1532 1533 1533 1534 1534 1534 1534 1535 1535 1535 1536 1536 1536 1536 1535 1535 1534 1534 1534 1534 1534 1534 1533 1532 1531 1529 1528 1527 1526 1524 1522
1530 1531 1531 1532 1532 1532 1533 1533 1534 1534 1535 1535 1535 1536 1536 1536 1536 1536 1537 1537 1537 1536 1536 1535 1535 1535 1535 1535 1534 1533 1532 1531 1530 1529 1528 1527 1526 1524
1532 1532 1533 1533 1533 1534 1534 1534 1535 1535 1535 1536 1536 1536 1537 1537 1537 1537 1537 1538 1538 1538 1537 1537 1537 1537 1537 1536 1535 1534 1533 1532 1531 1530 1529 1529 1528 1525
1534 1534 1534 1534 1534 1535 1535 1535 1535 1536 1536 1536 1537 1537 1537 1538 1538 1538 1538 1538 1538 1538 1538 1538 1538 1539 1539 1538 1536 1535 1534 1533 1532 1531 1530 1529 1529 1527
1535 1535 1535 1535 1535 1535 1536 1536 1536 1536 1536 1537 1537 1537 1538 1538 1538 1538 1539 1539 1539 1539 1538 1538 1538 1538 1538 1539 1537 1535 1534 1533 1533 1532 1531 1530 1528 1526
1536 1535 1535 1535 1535 1535 1536 1536 1536 1536 1536 1537 1537 1537 1538 1538 1538 1539 1538 1538 1539 1539 1539 1538 1537 1537 1537 1538 1538 1537 1535 1533 1532 1531 1531 1530 1529 1528
1536 1536 1535 1535 1535 1535 1535 1536 1536 1536 1536 1537 1537 1537 1537 1538 1538 1538 1539 1539 1539 1539 1539 1538 1537 1537 1538 1539 1538 1537 1536 1534 1532 1531 1530 1529 1528 1527
1535 1535 1535 1535 1535 1535 1535 1535 1535 1536 1536 1536 1536 1536 1537 1537 1538 1538 1538 1539 1539 1539 1539 1539 1538 1538 1538 1538 1538 1537 1536 1535 1534 1533 1531 1528 1527 1525